SCP
0 0 0 0 0 0 0 0 0 0 0 0 0 0 0 0 0 0 0 0 0 0 0 0 0 0 0 0 0 -0 -0 0 -0 0 -0 -0 0 0 0 0 0 0 0 0
0 0 0 0 0 -0 -0 -0 0 0 0 0 0 0 0 0 0 0 0 0 0 0 0 0 0 0 0 0 0 0 -0 -0 0 -0 0 -0 -0 0 0 0 0 0 0 0
0 0 0 0 0 0 0 0 0 0 0 0 0 0 0 0 0 0 0 0 0 0 0 0 -0 -0 0 0 0 0 -0 0 0 -0 0 0 -0 0 0 0 0 0 0 0
0 0 0 0 0 0 0 0 0 0 0 0 0 0 0 0 0 0 0 0 0 0 0 0 -0 -0 0 0 -0 -0 0 0 0 0 -0 0 -0 -0 0 0 0 0 0 0
0 0 0 0 0 0 0 0 0 0 0 0 0 0 0 0 0 0 0 0 0 0 0 -0 0 -0 -0 -0 -0 -0 -0 0 0 0 -0 0 -0 0 0 0 0 0 0 0
0 0 0 0 0 0 0 0 0 0 0 0 0 0 0 0 0 0 0 0 0 0 0 0 0 0 -0 -0 -0 -0 -0 -0 0 0 -0 0 0 -0 0 0 0 0 0 0
0 0 0 0 0 0 0 0 0 0 0 0 0 0 0 0 0 0 0 0 0 0 0 0 -0 -0 -0 -0 -0 -0 -0 -0 0 0 0 0 0 0 0 0 0 0 0 0
0 0 0 0 0 0 0 0 0 0 0 0 0 0 0 0 0 0 0 0 0 0 0 0 0 -0 -0 -0 -0 -0 -0 -0 0 0 0 0 0 0 0 0 0 0 0 0
0 0 0 0 0 0 0 0 0 0 0 0 0 0 0 0 0 0 0 0 0 0 -0 0 0 0 -0 -0 -0 -0 -0 0 -0 0 0 0 0 0 0 0 0 0 0 0
0 0 0 0 0 0 0 0 0 0 0 0 0 0 0 0 0 0 0 0 0 0 0 0 0 0 -0 -0 -0 -0 -0 -0 -0 -0 0 0 0 0 0 0 0 0 0 0
0 0 0 0 0 0 0 0 0 0 0 0 0 0 0 0 0 0 0 0 0 0 0 0 0 0 -0 -0 -0 -0 -0 -0 -0 0 0 0 0 0 0 0 0 0 0 0
0 0 0 0 0 0 0 0 0 0 0 0 0 0 0 0 0 0 0 0 0 0 0 -0 0 -0 -0 -0 -0 0 -0 -0 0 0 0 0 0 0 0 0 0 0 0 0
0 0 0 0 0 0 0 0 0 0 0 0 0 0 0 0 0 0 0 0 0 0 0 -0 -0 -0 -0 -0 -0 -0 -0 -0 0 0 0 0 0 0 0 0 0 0 0 0
0 0 0 0 0 0 0 0 0 0 0 0 0 0 0 0 -0 0 -0 0 0 0 -0 -0 -0 -0 -0 -0 -0 -0 -0 -0 0 0 0 0 0 0 0 0 0 0 0 0
0 0 0 0 0 0 0 0 0 0 0 0 0 0 0 0 0 0 -0 -0 -0 -0 -0 -0 -0 -0 -0 -0 -0 -0 -0 -0 0 0 0 0 0 0 0 0 0 0 0 0
0 0 0 0 0 0 0 0 0 0 0 0 0 0 0 0 0 0 0 0 -0 -0 -0 -0 -0 0 0 -0 -0 -0 -0 -0 0 0 0 0 0 0 0 0 0 0 0 0
0 0 0 0 0 0 0 0 0 0 0 0 0 0 0 0 0 0 0 -0 0 -0 -0 -0 -0 -0 -0 0 0 -0 -0 0 0 0 0 0 0 0 0 0 0 0 0 0
0 0 0 0 0 0 0 0 0 0 0 0 0 0 0 0 0 0 -0 -0 -0 -0 -0 -0 -0 -0 0 -0 0 0 0 0 0 0 0 0 0 0 0 0 0 0 0 0
0 0 0 0 0 0 0 0 0 0 0 0 0 0 0 0 0 0 -0 -0 -0 -0 -0 -0 -0 -0 -0 0 0 0 0 0 0 0 0 0 0 0 0 0 0 0 0 0
0 0 0 0 0 0 0 0 0 0 0 0 0 0 0 -0 0 0 -0 -0 -0 -0 -0 -0 -0 -0 0 -0 0 0 0 0 0 0 0 0 0 0 0 0 0 0 0 0
0 0 0 0 0 0 0 0 0 0 0 0 0 0 -0 -0 -0 -0 0 0 -0 -0 -0 -0 0 0 0 0 0 0 0 0 0 0 0 0 0 0 0 0 0 0 0 0
0 0 0 0 0 0 0 0 0 0 0 0 0 0 -0 0 -0 -0 -0 0 0 -0 -0 -0 0 0 0 0 0 0 0 0 0 0 0 0 0 0 0 0 0 0 0 0
0 0 0 0 0 0 0 0 0 0 0 0 0 0 0 0 0 0 0 -0 -0 -0 -0 -0 -0 -0 -0 0 0 0 0 0 0 0 0 0 0 0 0 0 0 0 0 0
0 0 0 0 0 0 0 0 0 -0 0 -0 -0 -0 0 0 -0 -0 -0 -0 -0 -0 -0 -0 -0 -0 0 0 0 0 0 0 0 0 0 0 0 0 0 0 0 0 0 0
0 0 0 0 0 0 0 0 0 -0 0 0 -0 0 0 0 0 -0 -0 -0 -0 -0 -0 -0 -0 -0 0 0 0 0 0 0 0 0 0 0 0 0 0 0 0 0 0 0
0 0 0 0 0 0 0 0 0 -0 0 0 -0 -0 0 0 0 -0 -0 -0 -0 -0 -0 -0 -0 0 0 -0 0 0 0 0 0 0 0 0 0 0 0 0 0 0 0 0
0 0 0 0 0 0 0 0 0 -0 0 -0 0 0 -0 -0 -0 0 -0 -0 -0 -0 -0 -0 -0 0 0 0 0 0 0 0 0 0 0 0 0 0 0 0 0 0 0 0
Wind_Speed_500mb
32 37 40 45 46 47 48 49 46 52 57 51 48 43 57 66 65 67 73 76 70 71 80 78 74 68 61 61 61 65 68 59 50 47 44 41 47 56 65 73 76 77 78 79
35 39 41 47 47 49 48 50 53 51 54 47 58 62 60 57 68 76 73 68 65 79 87 81 75 69 66 64 62 57 63 63 65 59 44 47 47 51 62 69 75 76 76 76
19 20 38 36 23 24 37 45 43 48 49 48 43 49 57 64 75 77 72 67 77 80 81 80 77 71 67 68 65 63 60 61 71 55 48 51 50 53 61 67 73 74 73 72
25 35 14 4 27 46 43 39 40 47 42 48 39 52 80 71 68 62 74 77 78 76 82 82 79 77 71 66 68 64 59 62 66 62 53 49 48 55 57 64 74 73 73 70
10 23 42 41 30 43 46 45 46 41 30 57 65 64 80 58 60 67 72 77 77 79 86 90 81 75 73 70 75 66 62 61 63 73 62 52 50 59 61 64 72 70 70 69
30 35 29 30 53 45 35 32 25 33 49 63 64 31 33 75 78 81 80 77 79 81 85 85 81 75 74 72 74 70 62 81 79 75 65 62 55 60 64 65 72 71 69 69
26 33 30 38 28 23 22 27 70 78 71 67 41 51 81 80 82 84 86 86 84 82 81 82 79 73 77 75 68 67 80 74 83 80 66 64 60 64 64 66 72 73 71 70
24 28 35 31 40 47 50 68 68 69 68 63 66 72 73 78 80 83 85 86 82 80 83 80 76 74 77 80 66 67 76 82 81 76 63 60 65 61 63 68 71 73 71 67
23 28 63 79 71 75 65 67 60 59 67 65 66 69 75 81 85 88 85 86 81 78 82 84 75 69 78 81 75 69 78 85 80 67 57 51 66 69 66 71 75 76 74 70
37 47 58 71 70 63 52 66 67 60 66 68 71 77 83 89 92 87 88 84 81 78 80 85 80 77 74 77 75 82 84 75 72 50 34 45 59 65 67 74 78 77 74 72
40 54 60 61 61 64 73 63 66 67 69 77 82 83 84 92 93 90 88 82 77 76 81 86 83 79 76 75 78 87 76 62 58 35 32 43 51 72 65 72 78 77 75 78
28 59 54 63 63 62 63 69 69 80 89 90 90 93 88 91 89 86 83 82 81 82 79 87 83 82 77 74 73 77 59 46 42 36 35 40 55 54 52 64 71 72 72 73
50 56 50 62 61 65 68 85 88 85 89 94 96 93 91 90 85 92 85 84 80 81 85 84 84 80 73 71 65 57 48 35 36 37 34 41 54 59 59 64 68 70 68 59
40 44 43 47 71 80 83 86 87 90 89 86 89 89 88 84 90 78 89 80 77 88 83 85 77 70 62 56 60 44 35 27 32 31 41 38 51 67 66 79 86 71 54 47
34 50 61 78 81 83 83 85 84 82 87 88 84 87 90 88 84 89 78 86 84 80 76 69 64 68 50 46 50 25 23 20 27 32 33 54 60 65 70 80 78 66 53 41
53 64 67 69 74 75 76 77 75 80 81 83 88 90 92 93 95 91 81 75 73 71 68 62 63 66 43 44 31 5 2 14 37 37 52 62 68 65 70 72 62 53 45 39
57 64 66 62 64 68 70 70 71 78 85 88 95 98 98 96 92 86 75 65 64 65 62 62 61 42 43 41 28 20 24 31 42 46 61 59 61 60 55 52 46 40 35 30
40 46 49 55 60 64 67 69 71 73 83 91 96 100 97 94 88 82 67 56 48 49 47 42 36 44 40 23 31 38 29 44 48 48 55 57 52 45 41 41 35 31 28 27
34 39 44 50 48 57 60 62 69 74 80 86 93 91 86 79 64 49 36 31 34 38 34 31 34 13 10 17 24 41 45 33 40 44 40 36 33 29 28 26 26 25 19 13
34 38 42 44 45 46 54 54 61 68 74 82 82 80 75 70 55 43 31 30 33 36 28 18 6 23 38 36 40 45 44 45 40 34 35 33 29 27 24 23 23 20 17 16
32 35 38 40 44 44 46 49 53 59 68 78 82 74 71 64 58 46 33 37 43 23 19 24 40 36 36 43 39 34 36 36 34 32 28 26 26 21 22 24 22 20 20 17
30 34 38 37 39 43 43 46 47 53 61 67 75 78 70 70 65 56 51 38 30 29 35 28 29 30 37 30 30 32 30 26 20 22 22 23 23 23 23 25 22 20 17 15
28 33 34 34 39 43 42 42 43 46 51 61 67 70 75 69 62 65 62 48 38 35 35 35 33 31 30 33 32 26 22 20 22 21 22 21 23 25 26 27 25 21 16 14
27 29 29 33 31 36 41 43 45 42 44 46 50 59 63 68 65 55 54 51 49 46 42 38 37 35 34 28 21 21 20 21 22 22 23 22 21 19 17 17 15 14 10 9
24 29 27 30 30 35 40 39 39 44 45 44 47 45 50 51 51 49 41 39 39 38 37 33 30 27 26 23 20 19 20 20 20 22 19 16 16 15 14 12 12 9 10 5
23 24 24 25 25 27 34 33 33 35 38 43 40 42 40 40 38 36 33 33 32 31 29 25 20 18 17 17 18 16 16 19 16 17 12 12 13 10 8 8 7 8 7 2
22 22 20 25 23 23 26 28 27 30 31 34 32 34 33 34 33 31 31 31 30 25 20 20 20 18 15 12 11 11 10 10 9 8 6 7 8 10 11 9 7 5 8 11
Wind_Direction_500mb
287 298 293 289 290 286 278 278 275 290 284 290 299 311 318 316 319 319 310 312 312 318 317 316 316 315 314 315 310 310 313 319 315 308 293 265 243 233 225 218 211 205 200 206
291 284 278 277 276 275 277 274 274 286 290 298 316 312 311 315 319 315 311 309 316 316 314 314 314 315 319 311 310 307 306 315 312 304 300 272 247 232 224 218 211 204 199 199
286 303 306 289 270 279 303 299 294 292 301 311 306 315 308 312 310 311 314 319 318 313 313 314 313 312 312 312 310 301 304 306 309 304 290 273 248 229 223 217 209 204 199 195
282 300 266 55 322 301 300 303 296 290 301 304 318 310 302 311 309 315 316 314 311 310 310 309 310 310 309 311 309 302 303 305 306 299 286 273 257 235 220 217 207 204 197 194
267 276 283 293 316 330 310 306 297 297 340 322 312 317 298 310 317 315 311 309 309 307 306 306 308 309 307 307 306 299 299 306 305 300 292 278 255 238 218 215 206 203 196 192
272 286 285 320 310 319 324 288 17 329 309 318 317 302 298 314 315 312 310 310 309 307 306 307 307 307 307 305 304 302 300 306 303 297 284 275 249 233 219 209 204 198 193 190
263 270 277 286 316 344 283 302 323 314 312 305 305 299 302 306 307 310 308 308 309 307 305 305 308 307 307 305 304 303 302 302 298 295 283 262 238 222 212 204 201 195 191 186
277 282 288 334 319 306 309 310 308 305 304 299 293 295 299 300 305 306 308 308 308 306 304 306 308 307 305 303 305 304 301 307 300 296 278 254 233 203 206 200 198 191 185 179
277 268 288 297 293 291 297 298 304 308 305 298 295 296 304 306 305 305 306 307 307 305 304 305 307 306 305 305 303 307 308 308 303 295 277 242 218 200 196 196 192 187 181 172
291 282 293 296 295 299 311 307 301 300 301 302 303 305 303 300 299 303 302 303 303 303 303 303 307 305 303 307 301 308 309 309 304 290 260 214 215 201 189 191 187 185 178 169
282 287 292 300 305 308 304 302 303 302 299 303 302 298 298 298 294 299 297 298 299 299 301 302 305 303 305 308 301 308 304 305 298 273 229 206 204 196 187 189 185 183 176 168
287 302 301 300 301 304 301 302 305 305 302 301 299 296 298 297 296 297 296 297 301 297 301 303 303 304 304 308 302 299 306 296 281 254 220 204 193 187 175 184 185 182 172 179
298 308 307 297 301 303 305 304 302 302 300 301 302 300 299 299 298 296 294 298 296 298 301 302 303 302 304 305 309 300 303 287 258 249 202 186 182 168 169 175 172 166 166 180
308 314 306 302 307 305 303 305 309 306 304 306 307 305 303 299 298 292 295 290 293 295 293 297 298 300 299 302 315 304 303 284 244 217 175 184 167 161 156 148 149 151 159 162
307 307 299 302 306 312 312 313 314 313 311 308 306 303 303 300 296 296 293 291 293 292 292 292 293 296 294 302 309 311 280 257 230 164 167 159 150 146 147 149 150 147 151 159
307 308 311 314 315 316 315 316 317 314 314 312 311 309 306 303 299 296 292 290 288 286 288 288 289 298 295 295 280 9 168 151 157 135 135 138 139 136 137 147 145 147 155 164
315 318 321 317 319 319 317 318 320 318 318 317 315 314 311 307 302 299 296 291 288 287 290 290 292 297 301 287 231 146 118 121 115 120 137 133 132 134 136 137 140 149 155 164
312 313 315 313 316 320 325 326 325 324 326 324 323 322 318 314 306 304 303 300 293 291 291 295 300 303 283 236 210 180 150 131 128 124 122 127 129 133 134 136 147 148 150 153
316 318 318 319 321 324 324 327 330 333 335 335 335 334 336 340 340 334 320 302 296 296 310 318 319 212 176 147 176 172 180 165 140 136 136 136 136 137 136 137 137 137 144 150
318 320 320 324 327 329 327 330 337 340 349 349 351 352 355 2 357 355 356 344 335 323 324 310 218 117 117 110 117 120 118 133 132 138 137 131 131 129 125 127 128 130 137 150
320 322 325 327 331 334 338 336 339 350 356 5 4 7 11 16 22 17 6 6 6 45 86 105 116 113 115 116 108 105 106 109 112 117 120 123 122 120 130 133 137 154 152 162
318 321 326 328 334 335 337 339 345 356 2 6 11 18 22 26 31 32 33 39 52 67 93 98 114 115 119 111 102 97 96 96 104 122 129 132 133 138 142 140 142 144 147 148
315 319 325 323 336 337 336 344 353 355 0 10 13 17 22 30 35 36 36 46 62 72 76 85 101 107 104 96 90 93 98 106 108 107 116 125 130 139 145 149 150 155 149 142
313 318 321 326 332 336 340 353 357 351 1 7 10 18 21 26 38 51 52 51 56 61 66 75 80 81 78 81 86 92 101 109 102 106 109 119 132 142 147 141 138 137 162 180
309 314 321 321 335 332 333 343 351 357 1 2 8 14 16 21 25 31 40 49 51 53 59 59 61 67 72 75 75 77 81 88 92 93 93 96 100 98 103 116 121 135 157 166
302 308 308 315 330 327 326 331 347 352 355 356 359 5 12 13 18 24 25 34 46 54 50 44 51 63 75 81 79 74 78 77 84 97 93 92 96 104 103 110 112 126 116 244
295 304 302 309 333 327 323 325 336 346 351 350 352 1 8 6 9 20 23 28 32 37 48 42 48 43 36 41 49 57 63 78 90 86 72 78 70 54 35 23 33 155 205 221
Wind_Speed_850mb
32 37 40 45 46 47 48 49 46 52 57 51 48 43 57 66 65 67 73 76 70 71 80 78 74 68 61 61 61 65 68 59 50 47 44 41 47 56 65 73 76 77 78 79
35 39 41 47 47 49 48 50 53 51 54 47 58 62 60 57 68 76 73 68 65 79 87 81 75 69 66 64 62 57 63 63 65 59 44 47 47 51 62 69 75 76 76 76
19 20 38 36 23 24 37 45 43 48 49 48 43 49 57 64 75 77 72 67 77 80 81 80 77 71 67 68 65 63 60 61 71 55 48 51 50 53 61 67 73 74 73 72
25 35 14 4 27 46 43 39 40 47 42 48 39 52 80 71 68 62 74 77 78 76 82 82 79 77 71 66 68 64 59 62 66 62 53 49 48 55 57 64 74 73 73 70
10 23 42 41 30 43 46 45 46 41 30 57 65 64 80 58 60 67 72 77 77 79 86 90 81 75 73 70 75 66 62 61 63 73 62 52 50 59 61 64 72 70 70 69
30 35 29 30 53 45 35 32 25 33 49 63 64 31 33 75 78 81 80 77 79 81 85 85 81 75 74 72 74 70 62 81 79 75 65 62 55 60 64 65 72 71 69 69
26 33 30 38 28 23 22 27 70 78 71 67 41 51 81 80 82 84 86 86 84 82 81 82 79 73 77 75 68 67 80 74 83 80 66 64 60 64 64 66 72 73 71 70
24 28 35 31 40 47 50 68 68 69 68 63 66 72 73 78 80 83 85 86 82 80 83 80 76 74 77 80 66 67 76 82 81 76 63 60 65 61 63 68 71 73 71 67
23 28 63 79 71 75 65 67 60 59 67 65 66 69 75 81 85 88 85 86 81 78 82 84 75 69 78 81 75 69 78 85 80 67 57 51 66 69 66 71 75 76 74 70
37 47 58 71 70 63 52 66 67 60 66 68 71 77 83 89 92 87 88 84 81 78 80 85 80 77 74 77 75 82 84 75 72 50 34 45 59 65 67 74 78 77 74 72
40 54 60 61 61 64 73 63 66 67 69 77 82 83 84 92 93 90 88 82 77 76 81 86 83 79 76 75 78 87 76 62 58 35 32 43 51 72 65 72 78 77 75 78
28 59 54 63 63 62 63 69 69 80 89 90 90 93 88 91 89 86 83 82 81 82 79 87 83 82 77 74 73 77 59 46 42 36 35 40 55 54 52 64 71 72 72 73
50 56 50 62 61 65 68 85 88 85 89 94 96 93 91 90 85 92 85 84 80 81 85 84 84 80 73 71 65 57 48 35 36 37 34 41 54 59 59 64 68 70 68 59
40 44 43 47 71 80 83 86 87 90 89 86 89 89 88 84 90 78 89 80 77 88 83 85 77 70 62 56 60 44 35 27 32 31 41 38 51 67 66 79 86 71 54 47
34 50 61 78 81 83 83 85 84 82 87 88 84 87 90 88 84 89 78 86 84 80 76 69 64 68 50 46 50 25 23 20 27 32 33 54 60 65 70 80 78 66 53 41
53 64 67 69 74 75 76 77 75 80 81 83 88 90 92 93 95 91 81 75 73 71 68 62 63 66 43 44 31 5 2 14 37 37 52 62 68 65 70 72 62 53 45 39
57 64 66 62 64 68 70 70 71 78 85 88 95 98 98 96 92 86 75 65 64 65 62 62 61 42 43 41 28 20 24 31 42 46 61 59 61 60 55 52 46 40 35 30
40 46 49 55 60 64 67 69 71 73 83 91 96 100 97 94 88 82 67 56 48 49 47 42 36 44 40 23 31 38 29 44 48 48 55 57 52 45 41 41 35 31 28 27
34 39 44 50 48 57 60 62 69 74 80 86 93 91 86 79 64 49 36 31 34 38 34 31 34 13 10 17 24 41 45 33 40 44 40 36 33 29 28 26 26 25 19 13
34 38 42 44 45 46 54 54 61 68 74 82 82 80 75 70 55 43 31 30 33 36 28 18 6 23 38 36 40 45 44 45 40 34 35 33 29 27 24 23 23 20 17 16
32 35 38 40 44 44 46 49 53 59 68 78 82 74 71 64 58 46 33 37 43 23 19 24 40 36 36 43 39 34 36 36 34 32 28 26 26 21 22 24 22 20 20 17
30 34 38 37 39 43 43 46 47 53 61 67 75 78 70 70 65 56 51 38 30 29 35 28 29 30 37 30 30 32 30 26 20 22 22 23 23 23 23 25 22 20 17 15
28 33 34 34 39 43 42 42 43 46 51 61 67 70 75 69 62 65 62 48 38 35 35 35 33 31 30 33 32 26 22 20 22 21 22 21 23 25 26 27 25 21 16 14
27 29 29 33 31 36 41 43 45 42 44 46 50 59 63 68 65 55 54 51 49 46 42 38 37 35 34 28 21 21 20 21 22 22 23 22 21 19 17 17 15 14 10 9
24 29 27 30 30 35 40 39 39 44 45 44 47 45 50 51 51 49 41 39 39 38 37 33 30 27 26 23 20 19 20 20 20 22 19 16 16 15 14 12 12 9 10 5
23 24 24 25 25 27 34 33 33 35 38 43 40 42 40 40 38 36 33 33 32 31 29 25 20 18 17 17 18 16 16 19 16 17 12 12 13 10 8 8 7 8 7 2
22 22 20 25 23 23 26 28 27 30 31 34 32 34 33 34 33 31 31 31 30 25 20 20 20 18 15 12 11 11 10 10 9 8 6 7 8 10 11 9 7 5 8 11
Wind_Direction_850mb
287 298 293 289 290 286 278 278 275 290 284 290 299 311 318 316 319 319 310 312 312 318 317 316 316 315 314 315 310 310 313 319 315 308 293 265 243 233 225 218 211 205 200 206
291 284 278 277 276 275 277 274 274 286 290 298 316 312 311 315 319 315 311 309 316 316 314 314 314 315 319 311 310 307 306 315 312 304 300 272 247 232 224 218 211 204 199 199
286 303 306 289 270 279 303 299 294 292 301 311 306 315 308 312 310 311 314 319 318 313 313 314 313 312 312 312 310 301 304 306 309 304 290 273 248 229 223 217 209 204 199 195
282 300 266 55 322 301 300 303 296 290 301 304 318 310 302 311 309 315 316 314 311 310 310 309 310 310 309 311 309 302 303 305 306 299 286 273 257 235 220 217 207 204 197 194
267 276 283 293 316 330 310 306 297 297 340 322 312 317 298 310 317 315 311 309 309 307 306 306 308 309 307 307 306 299 299 306 305 300 292 278 255 238 218 215 206 203 196 192
272 286 285 320 310 319 324 288 17 329 309 318 317 302 298 314 315 312 310 310 309 307 306 307 307 307 307 305 304 302 300 306 303 297 284 275 249 233 219 209 204 198 193 190
263 270 277 286 316 344 283 302 323 314 312 305 305 299 302 306 307 310 308 308 309 307 305 305 308 307 307 305 304 303 302 302 298 295 283 262 238 222 212 204 201 195 191 186
277 282 288 334 319 306 309 310 308 305 304 299 293 295 299 300 305 306 308 308 308 306 304 306 308 307 305 303 305 304 301 307 300 296 278 254 233 203 206 200 198 191 185 179
277 268 288 297 293 291 297 298 304 308 305 298 295 296 304 306 305 305 306 307 307 305 304 305 307 306 305 305 303 307 308 308 303 295 277 242 218 200 196 196 192 187 181 172
291 282 293 296 295 299 311 307 301 300 301 302 303 305 303 300 299 303 302 303 303 303 303 303 307 305 303 307 301 308 309 309 304 290 260 214 215 201 189 191 187 185 178 169
282 287 292 300 305 308 304 302 303 302 299 303 302 298 298 298 294 299 297 298 299 299 301 302 305 303 305 308 301 308 304 305 298 273 229 206 204 196 187 189 185 183 176 168
287 302 301 300 301 304 301 302 305 305 302 301 299 296 298 297 296 297 296 297 301 297 301 303 303 304 304 308 302 299 306 296 281 254 220 204 193 187 175 184 185 182 172 179
298 308 307 297 301 303 305 304 302 302 300 301 302 300 299 299 298 296 294 298 296 298 301 302 303 302 304 305 309 300 303 287 258 249 202 186 182 168 169 175 172 166 166 180
308 314 306 302 307 305 303 305 309 306 304 306 307 305 303 299 298 292 295 290 293 295 293 297 298 300 299 302 315 304 303 284 244 217 175 184 167 161 156 148 149 151 159 162
307 307 299 302 306 312 312 313 314 313 311 308 306 303 303 300 296 296 293 291 293 292 292 292 293 296 294 302 309 311 280 257 230 164 167 159 150 146 147 149 150 147 151 159
307 308 311 314 315 316 315 316 317 314 314 312 311 309 306 303 299 296 292 290 288 286 288 288 289 298 295 295 280 9 168 151 157 135 135 138 139 136 137 147 145 147 155 164
315 318 321 317 319 319 317 318 320 318 318 317 315 314 311 307 302 299 296 291 288 287 290 290 292 297 301 287 231 146 118 121 115 120 137 133 132 134 136 137 140 149 155 164
312 313 315 313 316 320 325 326 325 324 326 324 323 322 318 314 306 304 303 300 293 291 291 295 300 303 283 236 210 180 150 131 128 124 122 127 129 133 134 136 147 148 150 153
316 318 318 319 321 324 324 327 330 333 335 335 335 334 336 340 340 334 320 302 296 296 310 318 319 212 176 147 176 172 180 165 140 136 136 136 136 137 136 137 137 137 144 150
318 320 320 324 327 329 327 330 337 340 349 349 351 352 355 2 357 355 356 344 335 323 324 310 218 117 117 110 117 120 118 133 132 138 137 131 131 129 125 127 128 130 137 150
320 322 325 327 331 334 338 336 339 350 356 5 4 7 11 16 22 17 6 6 6 45 86 105 116 113 115 116 108 105 106 109 112 117 120 123 122 120 130 133 137 154 152 162
318 321 326 328 334 335 337 339 345 356 2 6 11 18 22 26 31 32 33 39 52 67 93 98 114 115 119 111 102 97 96 96 104 122 129 132 133 138 142 140 142 144 147 148
315 319 325 323 336 337 336 344 353 355 0 10 13 17 22 30 35 36 36 46 62 72 76 85 101 107 104 96 90 93 98 106 108 107 116 125 130 139 145 149 150 155 149 142
313 318 321 326 332 336 340 353 357 351 1 7 10 18 21 26 38 51 52 51 56 61 66 75 80 81 78 81 86 92 101 109 102 106 109 119 132 142 147 141 138 137 162 180
309 314 321 321 335 332 333 343 351 357 1 2 8 14 16 21 25 31 40 49 51 53 59 59 61 67 72 75 75 77 81 88 92 93 93 96 100 98 103 116 121 135 157 166
302 308 308 315 330 327 326 331 347 352 355 356 359 5 12 13 18 24 25 34 46 54 50 44 51 63 75 81 79 74 78 77 84 97 93 92 96 104 103 110 112 126 116 244
295 304 302 309 333 327 323 325 336 346 351 350 352 1 8 6 9 20 23 28 32 37 48 42 48 43 36 41 49 57 63 78 90 86 72 78 70 54 35 23 33 155 205 221